Location: Unspecified
(41.5000°N, 0.0000°E)
Time: 17:33:47
(UTC+00:00)

Vanguard 3 - Pass Details

Date: 27 June 2019
Orbit: 507 x 3264 km, 33.4° (Epoch: 17 July)

Event Time Altitude Azimuth Distance (km) Brightness Sun altitude
Rises 12:24:33 0° 263° (W) 6,416 11.8 71.3°
Reaches altitude 10° 12:29:32 10° 260° (W) 5,000 11.4 71.0°
Maximum altitude 12:42:00 52° 189° (S) 1,845 10.7 70.1°
Drops below altitude 10° 12:49:01 10° 115° (ESE) 2,893 10.1 69.4°
Sets 12:51:10 0° 109° (ESE) 3,591 10.4 69.2°
